| time (UTC) | temp F | wind direction | speed MPH | gust MPH | rain 1hr in | rain 24hr in | rain mn in | humidity % | barometer mb |
| 20260505055053 | 62 | 187 | 3.0 | 8.0 | 0.00 | 0.00 | 0.00 | 77 | 1005.9 |
| 20260505054557 | 62 | 164 | 3.0 | 8.0 | 0.00 | 0.00 | 0.00 | 76 | 1005.9 |
| 20260505054048 | 62 | 200 | 4.0 | 8.0 | 0.00 | 0.00 | 0.00 | 77 | 1006.1 |
| 20260505053550 | 62 | 191 | 3.0 | 10.0 | 0.00 | 0.00 | 0.00 | 77 | 1006.4 |
| 20260505053051 | 62 | 187 | 4.0 | 10.0 | 0.00 | 0.00 | 0.00 | 76 | 1006.2 |
| 20260505052550 | 62 | 173 | 3.0 | 8.0 | 0.00 | 0.00 | 0.00 | 76 | 1006.2 |
| 20260505052051 | 62 | 192 | 3.0 | 8.0 | 0.00 | 0.00 | 0.00 | 76 | 1006.1 |
| 20260505051553 | 62 | 195 | 4.0 | 8.0 | 0.00 | 0.00 | 0.00 | 76 | 1006.2 |
| 20260505051050 | 62 | 215 | 3.0 | 7.0 | 0.00 | 0.00 | 0.00 | 76 | 1006.4 |
| 20260505050549 | 62 | 184 | 3.0 | 7.0 | 0.00 | 0.00 | 0.00 | 76 | 1006.4 |
| 20260505050124 | 62 | 195 | 4.0 | 7.0 | 0.00 | 0.00 | 0.00 | 76 | 1006.5 |
| 20260505041603 | 63 | 183 | 3.0 | 7.0 | 0.00 | 0.00 | 0.00 | 75 | 1007.1 |
| 20260505041050 | 63 | 174 | 3.0 | 7.0 | 0.00 | 0.00 | 0.00 | 75 | 1007.2 |
| 20260505040553 | 63 | 201 | 3.0 | 8.0 | 0.00 | 0.00 | 0.00 | 75 | 1007.2 |
| 20260505040059 | 63 | 166 | 2.0 | 8.0 | 0.00 | 0.00 | 0.00 | 74 | 1007.4 |
| 20260505035553 | 63 | 193 | 2.0 | 7.0 | 0.00 | 0.00 | 0.00 | 74 | 1007.4 |
| 20260505035049 | 63 | 185 | 2.0 | 7.0 | 0.00 | 0.00 | 0.00 | 74 | 1007.5 |
| 20260505034553 | 63 | 178 | 3.0 | 7.0 | 0.00 | 0.00 | 0.00 | 74 | 1007.5 |
| 20260505034052 | 63 | 190 | 3.0 | 6.0 | 0.00 | 0.00 | 0.00 | 74 | 1007.5 |
| 20260505033551 | 63 | 191 | 3.0 | 7.0 | 0.00 | 0.00 | 0.00 | 74 | 1007.5 |
| 20260505033052 | 63 | 194 | 2.0 | 7.0 | 0.00 | 0.00 | 0.00 | 74 | 1007.6 |
| 20260505032550 | 63 | 201 | 2.0 | 7.0 | 0.00 | 0.00 | 0.00 | 73 | 1007.6 |
| 20260505032055 | 64 | 185 | 2.0 | 6.0 | 0.00 | 0.00 | 0.00 | 73 | 1007.6 |
| 20260505031554 | 64 | 183 | 3.0 | 7.0 | 0.00 | 0.00 | 0.00 | 73 | 1007.5 |
| 20260505031049 | 64 | 189 | 3.0 | 7.0 | 0.00 | 0.00 | 0.00 | 73 | 1007.4 |
| 20260505030550 | 64 | 184 | 3.0 | 7.0 | 0.00 | 0.00 | 0.00 | 72 | 1007.4 |
| 20260505030055 | 64 | 180 | 3.0 | 6.0 | 0.00 | 0.00 | 0.00 | 72 | 1007.2 |
| 20260505025549 | 64 | 182 | 3.0 | 6.0 | 0.00 | 0.00 | 0.00 | 72 | 1007.2 |
| 20260505025049 | 64 | 189 | 3.0 | 6.0 | 0.00 | 0.00 | 0.00 | 71 | 1007.2 |
| 20260505024550 | 65 | 191 | 3.0 | 7.0 | 0.00 | 0.00 | 0.00 | 71 | 1007.1 |
| 20260505024050 | 65 | 175 | 3.0 | 7.0 | 0.00 | 0.00 | 0.00 | 70 | 1007.0 |
| 20260505023549 | 65 | 186 | 4.0 | 7.0 | 0.00 | 0.00 | 0.00 | 70 | 1007.0 |
| 20260505023054 | 65 | 188 | 3.0 | 7.0 | 0.00 | 0.00 | 0.00 | 70 | 1006.9 |
| 20260505022549 | 65 | 196 | 3.0 | 7.0 | 0.00 | 0.00 | 0.00 | 70 | 1006.9 |
| 20260505022052 | 66 | 222 | 3.0 | 7.0 | 0.00 | 0.00 | 0.00 | 69 | 1006.8 |
| 20260505021554 | 66 | 205 | 2.0 | 7.0 | 0.00 | 0.00 | 0.00 | 69 | 1006.7 |
| 20260505021049 | 66 | 194 | 2.0 | 6.0 | 0.00 | 0.00 | 0.00 | 69 | 1006.6 |
| 20260505020549 | 66 | 174 | 3.0 | 7.0 | 0.00 | 0.00 | 0.00 | 68 | 1006.6 |
| 20260505020050 | 66 | 180 | 3.0 | 7.0 | 0.00 | 0.00 | 0.00 | 68 | 1006.5 |
| 20260505015549 | 66 | 182 | 3.0 | 7.0 | 0.00 | 0.00 | 0.00 | 67 | 1006.5 |
| 20260505015051 | 67 | 190 | 3.0 | 7.0 | 0.00 | 0.00 | 0.00 | 67 | 1006.3 |
| 20260505014605 | 67 | 164 | 2.0 | 7.0 | 0.00 | 0.00 | 0.00 | 67 | 1006.2 |
| 20260505014050 | 67 | 179 | 2.0 | 6.0 | 0.00 | 0.00 | 0.00 | 67 | 1006.1 |
| 20260505013549 | 67 | 206 | 2.0 | 6.0 | 0.00 | 0.00 | 0.00 | 68 | 1006.1 |
| 20260505013055 | 67 | 195 | 2.0 | 6.0 | 0.00 | 0.00 | 0.00 | 67 | 1006.1 |
| 20260505012549 | 67 | 195 | 2.0 | 6.0 | 0.00 | 0.00 | 0.00 | 66 | 1006.1 |
| 20260505012049 | 67 | 181 | 2.0 | 6.0 | 0.00 | 0.00 | 0.00 | 66 | 1006.0 |
| 20260505011603 | 68 | 201 | 2.0 | 7.0 | 0.00 | 0.00 | 0.00 | 65 | 1005.9 |
| 20260505011050 | 68 | 191 | 2.0 | 7.0 | 0.00 | 0.00 | 0.00 | 64 | 1005.9 |
| 20260505010549 | 68 | 211 | 3.0 | 7.0 | 0.00 | 0.00 | 0.00 | 64 | 1005.7 |
| 20260505010056 | 69 | 190 | 2.0 | 6.0 | 0.00 | 0.00 | 0.00 | 62 | 1005.6 |
| 20260505005549 | 69 | 174 | 2.0 | 7.0 | 0.00 | 0.00 | 0.00 | 62 | 1005.6 |
| 20260505005050 | 69 | 195 | 2.0 | 7.0 | 0.00 | 0.00 | 0.00 | 61 | 1005.5 |
| 20260505004600 | 70 | 194 | 2.0 | 7.0 | 0.00 | 0.00 | 0.00 | 60 | 1005.4 |
| 20260505004048 | 70 | 188 | 4.0 | 7.0 | 0.00 | 0.00 | 0.00 | 60 | 1005.4 |
| 20260505003549 | 70 | 183 | 3.0 | 7.0 | 0.00 | 0.00 | 0.00 | 60 | 1005.3 |
| 20260505003057 | 70 | 201 | 3.0 | 7.0 | 0.00 | 0.00 | 0.00 | 60 | 1005.3 |
| 20260505002551 | 70 | 198 | 2.0 | 6.0 | 0.00 | 0.00 | 0.00 | 61 | 1005.4 |
| 20260505002050 | 71 | 203 | 3.0 | 6.0 | 0.00 | 0.00 | 0.00 | 60 | 1005.5 |
| 20260505001624 | 71 | 180 | 2.0 | 8.0 | 0.00 | 0.00 | 0.00 | 61 | 1005.5 |
| 20260505001049 | 72 | 199 | 3.0 | 12.0 | 0.00 | 0.00 | 0.00 | 59 | 1005.5 |
| 20260505000549 | 72 | 216 | 4.0 | 12.0 | 0.00 | 0.00 | 0.00 | 59 | 1005.5 |
| 20260505000135 | 72 | 225 | 5.0 | 12.0 | 0.00 | 0.00 | 0.00 | 58 | 1005.4 |
| 20260504235549 | 72 | 228 | 4.0 | 8.0 | 0.00 | 0.00 | 0.00 | 59 | 1005.3 |
| 20260504235049 | 73 | 216 | 3.0 | 8.0 | 0.00 | 0.00 | 0.00 | 61 | 1005.3 |
| 20260504234610 | 73 | 201 | 3.0 | 7.0 | 0.00 | 0.00 | 0.00 | 60 | 1005.3 |
| 20260504234049 | 73 | 192 | 3.0 | 8.0 | 0.00 | 0.00 | 0.00 | 58 | 1005.3 |
| 20260504233554 | 74 | 190 | 4.0 | 8.0 | 0.00 | 0.00 | 0.00 | 58 | 1005.2 |
| 20260504233105 | 74 | 165 | 2.0 | 8.0 | 0.00 | 0.00 | 0.00 | 57 | 1005.2 |
| 20260504232550 | 74 | 206 | 3.0 | 8.0 | 0.00 | 0.00 | 0.00 | 57 | 1005.3 |
| 20260504232048 | 75 | 195 | 2.0 | 9.0 | 0.00 | 0.00 | 0.00 | 53 | 1005.3 |
| 20260504231554 | 75 | 203 | 4.0 | 14.0 | 0.00 | 0.00 | 0.00 | 51 | 1005.3 |
| 20260504231049 | 76 | 195 | 6.0 | 18.0 | 0.00 | 0.00 | 0.00 | 51 | 1005.3 |
| 20260504230549 | 76 | 135 | 5.0 | 18.0 | 0.00 | 0.00 | 0.00 | 49 | 1005.4 |
| 20260504230054 | 76 | 245 | 7.0 | 18.0 | 0.00 | 0.00 | 0.00 | 50 | 1005.5 |
| 20260504225550 | 76 | 235 | 4.0 | 16.0 | 0.00 | 0.00 | 0.00 | 52 | 1005.5 |
| 20260504225051 | 77 | 235 | 5.0 | 16.0 | 0.00 | 0.00 | 0.00 | 49 | 1005.4 |
| 20260504224607 | 77 | 203 | 4.0 | 12.0 | 0.00 | 0.00 | 0.00 | 52 | 1005.4 |
| 20260504224052 | 77 | 224 | 6.0 | 13.0 | 0.00 | 0.00 | 0.00 | 50 | 1005.6 |
| 20260504223549 | 77 | 242 | 5.0 | 13.0 | 0.00 | 0.00 | 0.00 | 50 | 1005.5 |
| 20260504223058 | 77 | 207 | 6.0 | 16.0 | 0.00 | 0.00 | 0.00 | 50 | 1005.6 |
| 20260504222550 | 76 | 201 | 5.0 | 16.0 | 0.00 | 0.00 | 0.00 | 51 | 1005.7 |
| 20260504222049 | 76 | 220 | 6.0 | 21.0 | 0.00 | 0.00 | 0.00 | 50 | 1005.7 |
| 20260504221557 | 76 | 219 | 6.0 | 21.0 | 0.00 | 0.00 | 0.00 | 50 | 1005.7 |
| 20260504221049 | 77 | 239 | 5.0 | 13.0 | 0.00 | 0.00 | 0.00 | 50 | 1005.6 |
| 20260504220553 | 77 | 186 | 5.0 | 13.0 | 0.00 | 0.00 | 0.00 | 51 | 1005.7 |
| 20260504220100 | 78 | 192 | 6.0 | 14.0 | 0.00 | 0.00 | 0.00 | 52 | 1005.8 |
| 20260504215550 | 78 | 218 | 5.0 | 16.0 | 0.00 | 0.00 | 0.00 | 51 | 1005.8 |
| 20260504215053 | 78 | 242 | 5.0 | 16.0 | 0.00 | 0.00 | 0.00 | 49 | 1005.9 |
| 20260504214600 | 78 | 227 | 7.0 | 13.0 | 0.00 | 0.00 | 0.00 | 49 | 1005.9 |
| 20260504214049 | 78 | 233 | 5.0 | 15.0 | 0.00 | 0.00 | 0.00 | 51 | 1006.0 |
| 20260504213549 | 78 | 214 | 6.0 | 15.0 | 0.00 | 0.00 | 0.00 | 51 | 1006.1 |
| 20260504213119 | 78 | 199 | 5.0 | 15.0 | 0.00 | 0.00 | 0.00 | 46 | 1006.1 |
| 20260504212550 | 78 | 247 | 7.0 | 15.0 | 0.00 | 0.00 | 0.00 | 50 | 1006.1 |
| 20260504212052 | 78 | 177 | 5.0 | 10.0 | 0.00 | 0.00 | 0.00 | 48 | 1006.0 |
| 20260504211556 | 79 | 176 | 4.0 | 10.0 | 0.00 | 0.00 | 0.00 | 50 | 1006.2 |
| 20260504211050 | 79 | 213 | 4.0 | 10.0 | 0.00 | 0.00 | 0.00 | 51 | 1006.2 |
| 20260504210550 | 78 | 195 | 4.0 | 10.0 | 0.00 | 0.00 | 0.00 | 49 | 1006.1 |
| 20260504210058 | 78 | 186 | 5.0 | 10.0 | 0.00 | 0.00 | 0.00 | 50 | 1006.2 |
| 20260504205550 | 78 | 203 | 5.0 | 11.0 | 0.00 | 0.00 | 0.00 | 49 | 1006.3 |
| 20260504205050 | 78 | 260 | 4.0 | 12.0 | 0.00 | 0.00 | 0.00 | 53 | 1006.2 |
| 20260504204558 | 79 | 168 | 6.0 | 14.0 | 0.00 | 0.00 | 0.00 | 50 | 1006.4 |
| 20260504204051 | 79 | 228 | 6.0 | 14.0 | 0.00 | 0.00 | 0.00 | 49 | 1006.4 |
| 20260504203555 | 79 | 222 | 4.0 | 11.0 | 0.00 | 0.00 | 0.00 | 53 | 1006.5 |
| 20260504203112 | 79 | 194 | 6.0 | 11.0 | 0.00 | 0.00 | 0.00 | 51 | 1006.5 |
| 20260504202550 | 79 | 188 | 5.0 | 15.0 | 0.00 | 0.00 | 0.00 | 50 | 1006.7 |
| 20260504202048 | 79 | 201 | 5.0 | 15.0 | 0.00 | 0.00 | 0.00 | 48 | 1006.6 |
| 20260504201551 | 79 | 203 | 6.0 | 13.0 | 0.00 | 0.00 | 0.00 | 48 | 1006.8 |
| 20260504201050 | 79 | 196 | 5.0 | 16.0 | 0.00 | 0.00 | 0.00 | 50 | 1006.8 |
| 20260504200550 | 79 | 204 | 6.0 | 16.0 | 0.00 | 0.00 | 0.00 | 51 | 1006.9 |
| 20260504200052 | 79 | 233 | 6.0 | 12.0 | 0.00 | 0.00 | 0.00 | 47 | 1006.9 |
| 20260504195552 | 79 | 208 | 4.0 | 15.0 | 0.00 | 0.00 | 0.00 | 53 | 1006.9 |
| 20260504195051 | 79 | 205 | 7.0 | 15.0 | 0.00 | 0.00 | 0.00 | 48 | 1006.9 |
| 20260504194602 | 79 | 214 | 7.0 | 15.0 | 0.00 | 0.00 | 0.00 | 52 | 1007.0 |
| 20260504194050 | 79 | 226 | 7.0 | 14.0 | 0.00 | 0.00 | 0.00 | 51 | 1007.0 |
| 20260504193552 | 79 | 224 | 6.0 | 16.0 | 0.00 | 0.00 | 0.00 | 49 | 1007.1 |
| 20260504193059 | 79 | 203 | 6.0 | 16.0 | 0.00 | 0.00 | 0.00 | 49 | 1007.1 |
| 20260504192550 | 79 | 237 | 7.0 | 15.0 | 0.00 | 0.00 | 0.00 | 48 | 1007.1 |
| 20260504192049 | 79 | 222 | 6.0 | 18.0 | 0.00 | 0.00 | 0.00 | 52 | 1007.1 |
| 20260504191554 | 78 | 204 | 9.0 | 18.0 | 0.00 | 0.00 | 0.00 | 51 | 1007.1 |
| 20260504191049 | 79 | 219 | 5.0 | 17.0 | 0.00 | 0.00 | 0.00 | 50 | 1007.2 |
| 20260504190552 | 78 | 177 | 7.0 | 19.0 | 0.00 | 0.00 | 0.00 | 48 | 1007.1 |
| 20260504190114 | 79 | 218 | 6.0 | 19.0 | 0.00 | 0.00 | 0.00 | 52 | 1007.4 |
| 20260504185549 | 79 | 247 | 7.0 | 19.0 | 0.00 | 0.00 | 0.00 | 48 | 1007.3 |
| 20260504185049 | 79 | 201 | 4.0 | 12.0 | 0.00 | 0.00 | 0.00 | 53 | 1007.5 |
| 20260504184600 | 78 | 191 | 6.0 | 16.0 | 0.00 | 0.00 | 0.00 | 52 | 1007.4 |
| 20260504184050 | 78 | 244 | 5.0 | 18.0 | 0.00 | 0.00 | 0.00 | 51 | 1007.4 |
| 20260504183554 | 78 | 231 | 8.0 | 18.0 | 0.00 | 0.00 | 0.00 | 48 | 1007.5 |
| 20260504183055 | 78 | 203 | 6.0 | 16.0 | 0.00 | 0.00 | 0.00 | 51 | 1007.4 |
| 20260504182555 | 78 | 218 | 5.0 | 14.0 | 0.00 | 0.00 | 0.00 | 53 | 1007.4 |
| 20260504182051 | 78 | 214 | 5.0 | 17.0 | 0.00 | 0.00 | 0.00 | 53 | 1007.3 |
| 20260504181550 | 78 | 239 | 5.0 | 17.0 | 0.00 | 0.00 | 0.00 | 52 | 1007.5 |
| 20260504181049 | 78 | 241 | 4.0 | 16.0 | 0.00 | 0.00 | 0.00 | 54 | 1007.4 |
| 20260504180550 | 78 | 203 | 5.0 | 16.0 | 0.00 | 0.00 | 0.00 | 54 | 1007.5 |
| 20260504180056 | 77 | 201 | 7.0 | 16.0 | 0.00 | 0.00 | 0.00 | 53 | 1007.6 |
| 20260504175553 | 77 | 208 | 5.0 | 21.0 | 0.00 | 0.00 | 0.00 | 54 | 1007.6 |
| 20260504175049 | 77 | 245 | 8.0 | 21.0 | 0.00 | 0.00 | 0.00 | 53 | 1007.7 |
| 20260504174602 | 77 | 211 | 7.0 | 21.0 | 0.00 | 0.00 | 0.00 | 50 | 1007.6 |
| 20260504174050 | 77 | 228 | 7.0 | 11.0 | 0.00 | 0.00 | 0.00 | 54 | 1007.6 |
| 20260504173550 | 77 | 205 | 5.0 | 12.0 | 0.00 | 0.00 | 0.00 | 53 | 1007.6 |
| 20260504173058 | 76 | 249 | 7.0 | 13.0 | 0.00 | 0.00 | 0.00 | 54 | 1007.6 |
| 20260504172550 | 76 | 212 | 5.0 | 16.0 | 0.00 | 0.00 | 0.00 | 55 | 1007.7 |
| 20260504172053 | 76 | 252 | 8.0 | 16.0 | 0.00 | 0.00 | 0.00 | 54 | 1007.7 |
| 20260504171554 | 75 | 185 | 6.0 | 11.0 | 0.00 | 0.00 | 0.00 | 53 | 1007.7 |
| 20260504171054 | 75 | 191 | 6.0 | 11.0 | 0.00 | 0.00 | 0.00 | 54 | 1007.8 |
| 20260504170550 | 75 | 199 | 6.0 | 12.0 | 0.00 | 0.00 | 0.00 | 54 | 1007.8 |
| 20260504151050 | 68 | 240 | 7.0 | 17.0 | 0.00 | 0.00 | 0.00 | 58 | 1008.9 |
| 20260504150550 | 68 | 185 | 8.0 | 17.0 | 0.00 | 0.00 | 0.00 | 61 | 1008.9 |
| 20260504141049 | 64 | 195 | 6.0 | 16.0 | 0.00 | 0.00 | 0.00 | 65 | 1009.7 |
| 20260504140549 | 64 | 207 | 6.0 | 12.0 | 0.00 | 0.00 | 0.00 | 65 | 1009.7 |
| 20260504140107 | 64 | 186 | 5.0 | 16.0 | 0.00 | 0.00 | 0.00 | 65 | 1009.8 |
| 20260504130552 | 60 | 210 | 2.0 | 4.0 | 0.00 | 0.00 | 0.00 | 71 | 1009.9 |
| 20260504110552 | 56 | 197 | 1.0 | 4.0 | 0.00 | 0.00 | 0.00 | 74 | 1009.8 |
| 20260504110119 | 56 | 199 | 1.0 | 4.0 | 0.00 | 0.00 | 0.00 | 74 | 1009.7 |
| 20260504100549 | 57 | 184 | 1.0 | 3.0 | 0.00 | 0.00 | 0.00 | 72 | 1010.0 |
| 20260504090116 | 57 | 214 | 2.0 | 4.0 | 0.00 | 0.00 | 0.00 | 72 | 1010.3 |
| 20260504081600 | 58 | 204 | 2.0 | 7.0 | 0.00 | 0.00 | 0.00 | 72 | 1010.3 |
| 20260504081049 | 58 | 203 | 3.0 | 10.0 | 0.00 | 0.00 | 0.00 | 72 | 1010.3 |
| 20260504080554 | 57 | 201 | 2.0 | 10.0 | 0.00 | 0.00 | 0.00 | 72 | 1010.4 |